• Processing (Info)

  • MPEC 2010-A46 : 2010 AH3

    The following Minor Planet Electronic Circular may be linked-to from your own Web pages, but must not otherwise be redistributed electronically.

    A form allowing access to any MPEC is at the bottom of this page.


    Read MPEC 2010-A45 Read MPEC 2010-A47


    M.P.E.C. 2010-A46                                Issued 2010 Jan.  9, 17:40 UT
    
         The Minor Planet Electronic Circulars contain information on unusual
             minor planets and routine data on comets.  They are published
       on behalf of Commission 20 of the International Astronomical Union by the
              Minor Planet Center, Smithsonian Astrophysical Observatory,
                              Cambridge, MA 02138, U.S.A.
    
                 Prepared using the Tamkin Foundation Computer Network
    
                                  MPC@CFA.HARVARD.EDU
              URL http://www.cfa.harvard.edu/iau/mpc.html  ISSN 1523-6714
    
                                       2010 AH3
    
    Observations:
         K10A03H* C2010 01 08.41725 08 32 03.69 +24 16 12.9          20.8 V EA046G96
         K10A03H  C2010 01 08.42317 08 32 04.70 +24 16 14.4          21.3 V EA046G96
         K10A03H  C2010 01 08.42912 08 32 05.64 +24 16 15.4          22.0 V EA046G96
         K10A03H  C2010 01 08.43501 08 32 06.57 +24 16 17.2          20.8 V EA046G96
         K10A03H  C2010 01 08.46649 08 32 11.68 +24 16 23.7          21.3 V EA046G96
         K10A03H  C2010 01 08.46732 08 32 11.86 +24 16 23.9          21.0 V EA046G96
         K10A03H  C2010 01 08.46815 08 32 11.97 +24 16 23.8          22.0 V EA046G96
         K10A03H  C2010 01 08.46896 08 32 12.12 +24 16 24.2          21.4 V EA046G96
         K10A03H  C2010 01 09.24901 08 35 01.50 +24 20 57.6          20.4 V EA046G96
         K10A03H  C2010 01 09.24983 08 35 01.60 +24 20 58.2          20.7 V EA046G96
         K10A03H  C2010 01 09.25067 08 35 01.71 +24 20 57.7          20.0 V EA046G96
         K10A03H  C2010 01 09.25149 08 35 01.82 +24 20 58.9          20.7 V EA046G96
         K10A03H  C2010 01 09.25232 08 35 01.96 +24 20 59.6          19.9 V EA046G96
         K10A03H  C2010 01 09.29424 08 35 07.80 +24 21 19.6          21.0 V EA046G96
         K10A03H  C2010 01 09.29492 08 35 07.87 +24 21 20.3          21.0 V EA046G96
         K10A03H  C2010 01 09.29560 08 35 07.94 +24 21 20.9          21.2 V EA046G96
         K10A03H  C2010 01 09.29625 08 35 08.05 +24 21 21.1          21.5 V EA046G96
         K10A03H  C2010 01 09.30904 08 35 09.14 +24 21 24.2          20.3 R EA046H01
         K10A03H  C2010 01 09.31635 08 35 10.12 +24 21 27.0          20.5 R EA046H01
         K10A03H  C2010 01 09.32454 08 35 11.18 +24 21 30.3          20.3 R EA046H01
         K10A03H  C2010 01 09.33189 08 35 12.11 +24 21 33.1          20.4 R EA046H01
    
    Observer details:
    G96 Mt. Lemmon Survey.  Observer A. Boattini.  Measurers J. D. Ahern,
        E. C. Beshore, A. Boattini, G. J. Garradd, A. R. Gibbs, A. D. Grauer,
        R. E. Hill, R. A. Kowalski, S. M. Larson, R. H. McNaught.  1.5-m reflector
        + CCD.
    H01 Magdalena Ridge Observatory, Socorro.  Observer W. H. Ryan.  2.4-m f/8.9
        reflector + CCD.
    
    Orbital elements:
    2010 AH3                                                 Earth MOID = 0.0054 AU
    Epoch 2010 Jan. 4.0 TT = JDT 2455200.5                  MPC
    M  14.52277              (2000.0)            P               Q
    n   0.46827925     Peri.  326.06505     +0.39517928     -0.91797960
    a   1.6423515      Node   100.63747     +0.85026927     +0.35158082
    e   0.4168746      Incl.    1.97459     +0.34767155     +0.18358751
    P   2.10           H   26.2           G   0.15           U   9
    Residuals in seconds of arc
    100108 G96  0.6-  0.1+    100108 G96  0.1+  0.2+    100109 G96  0.1+  0.3-
    100108 G96  0.4+  0.1+    100109 G96  0.2+  0.1+    100109 G96  0.2-  0.0
    100108 G96  0.3+  0.4-    100109 G96  0.0   0.3+    100109 G96  0.1+  0.1-
    100108 G96  0.1+  0.0     100109 G96  0.2-  0.7-    100109 H01  0.1-  0.3+
    100108 G96  0.3-  0.1+    100109 G96  0.3-  0.1+    100109 H01  0.2+  0.1+
    100108 G96  0.2+  0.1+    100109 G96  0.0   0.3+    100109 H01  0.0   0.2+
    100108 G96  0.1-  0.1-    100109 G96  0.4+  0.7-    100109 H01  0.3-  0.3+
    
    Ephemeris:
    2010 AH3                 a,e,i = 1.64, 0.42, 2                   q = 0.9577
    Date    TT    R. A. (2000) Decl.     Delta      r     Elong.  Phase     V
    2010 01 04    08 07.42   +23 27.2    0.0368   1.019   164.1    15.4    19.9
    2010 01 05    08 15.02   +23 43.8    0.0409   1.023   163.3    16.0    20.2
    2010 01 06    08 21.20   +23 56.3    0.0450   1.026   162.9    16.4    20.4
    2010 01 07    08 26.30   +24 06.1    0.0491   1.030   162.7    16.5    20.6
    2010 01 08    08 30.55   +24 13.9    0.0533   1.034   162.7    16.4    20.8
    2010 01 09    08 34.12   +24 20.1    0.0575   1.039   162.8    16.2    21.0
    2010 01 10    08 37.14   +24 25.3    0.0618   1.043   163.1    15.9    21.1
    2010 01 11    08 39.72   +24 29.6    0.0661   1.047   163.5    15.5    21.3
    2010 01 12    08 41.92   +24 33.1    0.0705   1.051   163.9    15.0    21.4
    2010 01 13    08 43.82   +24 36.1    0.0748   1.056   164.4    14.5    21.5
    2010 01 14    08 45.45   +24 38.6    0.0793   1.060   165.0    13.9    21.6
    2010 01 15    08 46.86   +24 40.7    0.0837   1.065   165.6    13.3    21.7
    2010 01 16    08 48.08   +24 42.4    0.0882   1.070   166.2    12.7    21.8
    2010 01 17    08 49.13   +24 43.8    0.0928   1.074   166.8    12.0    21.9
    2010 01 18    08 50.05   +24 44.8    0.0974   1.079   167.5    11.4    22.0
    2010 01 19    08 50.85   +24 45.6    0.102    1.084   168.2    10.7    22.1
    2010 01 20    08 51.54   +24 46.1    0.107    1.089   168.8    10.1    22.2
    2010 01 21    08 52.15   +24 46.4    0.112    1.094   169.5     9.4    22.3
    2010 01 22    08 52.67   +24 46.4    0.116    1.099   170.1     8.8    22.3
    2010 01 23    08 53.14   +24 46.2    0.121    1.104   170.7     8.3    22.4
    2010 01 24    08 53.54   +24 45.8    0.126    1.109   171.3     7.7    22.5
    
    Timothy B. Spahr             (C) Copyright 2010 MPC           M.P.E.C. 2010-A46
    

    Read MPEC 2010-A45 Read MPEC 2010-A47


    MPEC number:

    Enter an MPEC number in one of the following forms:

    • 1997-B01 (the full form)
    • J97B01 (the packed version of the full form)
    • B01 (the abbreviated form)